Flag for Norway Weather past 2 weeks in Langesund, Norway

Now
36 °F

Chilly.


Feels Like: 31 °F
Forecast: 22 / 43 °F
Wind: 6 mph from West

Location: Jomfruland Fyr

Current Time: Mar 31, 2015 at 5:02:45 AM

Latest Report: Mar 31, 2015 at 4:00 AM


Visibility: N/A

Pressure: 29.06 "Hg

Humidity: 76%

Dew point: 29 °F

Location of LangesundLocation

Historic Weather in Langesund — Graph

°F

Langesund temperature yesterday

Maximum temperature yesterday: 46 °F (at 3:00 PM)
Minimum temperature yesterday: 38 °F (at 7:00 AM)
Average temperature yesterday: 41 °F

Past Weeks' High & Low Weather Summary

 TemperatureHumidityPressure
High48 °F (Mar 24, 3:00 PM)100% (Mar 26, 9:00 AM)30.78 "Hg (Mar 26, 9:00 AM)
Low29 °F (Mar 26, 6:00 AM)29% (Mar 21, 7:00 PM)28.94 "Hg (Mar 30, 1:00 AM)
Average39 °F84%29.97 "Hg
* Reported Mar 16 2:00 AM — Mar 31 3:00 AM, Langesund, Weather by CustomWeather, © 2015

Note: Actual official high and low records may vary slightly from our data, if they occured in-between our weather recording intervals... More about our weather records

Advertising

Langesund weather history for previous 24 hours

 ConditionsComfort  
Time TempWeatherWind HumidityBarometerVisibility
3:00 AM
Tue, Mar 31
37 °FChilly.7 mph73%29.09 "HgN/A
2:00 AM38 °FChilly.5 mph62%29.12 "HgN/A
1:00 AM39 °FChilly.6 mph71%29.15 "HgN/A
12:00 AM40 °FQuite cool.5 mph64%29.15 "HgN/A
11:00 PM
Mon, Mar 30
41 °FQuite cool.6 mph65%29.15 "HgN/A
10:00 PM41 °FQuite cool.5 mph62%29.15 "HgN/A
9:00 PM40 °FChilly.2 mph82%29.18 "HgN/A
8:00 PM40 °FQuite cool.5 mph92%29.18 "HgN/A
7:00 PM42 °FQuite cool.5 mph85%29.15 "HgN/A
6:00 PM42 °FQuite cool.6 mph85%29.15 "HgN/A
5:00 PM42 °FQuite cool.6 mph82%29.15 "HgN/A
4:00 PM42 °FQuite cool.2 mph81%29.12 "HgN/A
3:00 PM46 °FCool.3 mph70%29.09 "HgN/A
2:00 PM45 °FCool.3 mph70%29.09 "HgN/A
1:00 PM44 °FQuite cool.5 mph74%29.06 "HgN/A
12:00 PM43 °FQuite cool.5 mph78%29.06 "HgN/A
11:00 AM42 °FQuite cool.3 mph79%29.03 "HgN/A
10:00 AM40 °FChilly.3 mph84%29.00 "HgN/A
9:00 AM39 °FChilly.2 mph90%29.00 "HgN/A
8:00 AM38 °FChilly.1 mph92%28.97 "HgN/A
7:00 AM38 °FChilly.3 mph93%28.97 "HgN/A
6:00 AM38 °FChilly.3 mph96%28.94 "HgN/A
5:00 AM39 °FChilly.3 mph96%28.94 "HgN/A
Weather by CustomWeather, © 2015

See weather overviewHow to use our weather pages